When you browse on this site, cookies collect data to enhance your experience and personalize the content and advertising you see.
Visit our Privacy Policy to learn more. By continuing to use the site, you agree to this use of cookies and data.
  • In United Kingdom
  • List of Countries
  • For 7 days
  • Water Temperature
  • Weather Map
  • Weather Widgets
  • user-avatar
    Login

    Hourly Weather Abercarn

    Today, 18 September, Wednesday

    Time Temperature Precipitation Wind Pressure Humidity
    00:00 +8°C° 0 mm 3 mps 753 mmHg 84%
    01:00 +8°C° 0 mm 2 mps 753 mmHg 86%
    02:00 +7°C° 0 mm 2 mps 753 mmHg 87%
    03:00 +7°C° 0 mm 2 mps 753 mmHg 89%
    04:00 +7°C° 0 mm 2 mps 753 mmHg 90%
    05:00 +7°C° 0 mm 2 mps 753 mmHg 90%
    06:00 +8°C° 0 mm 1 mps 753 mmHg 90%
    07:00 +9°C° 0 mm 1 mps 754 mmHg 84%
    08:00 +11°C° 0 mm 1 mps 754 mmHg 79%
    09:00 +13°C° 0 mm 1 mps 754 mmHg 74%
    10:00 +14°C° 0 mm 1 mps 754 mmHg 69%
    11:00 +16°C° 0 mm 1 mps 754 mmHg 65%
    12:00 +18°C° 0 mm 1 mps 754 mmHg 60%
    13:00 +18°C° 0 mm 1 mps 754 mmHg 60%
    14:00 +18°C° 0 mm 1 mps 754 mmHg 60%
    15:00 +19°C° 0 mm 1 mps 754 mmHg 60%
    16:00 +16°C° 0 mm 1 mps 754 mmHg 66%
    17:00 +15°C° 0 mm 1 mps 753 mmHg 72%
    18:00 +14°C° 0 mm 1 mps 753 mmHg 78%
    19:00 +13°C° 0 mm 1 mps 754 mmHg 80%
    20:00 +12°C° 0 mm 1 mps 754 mmHg 82%
    21:00 +12°C° 0 mm 1 mps 754 mmHg 84%
    22:00 +11°C° 0 mm 1 mps 754 mmHg 85%
    23:00 +11°C° 0 mm 1 mps 754 mmHg 86%

    Tomorrow, 19 September, Thursday

    Time Temperature Precipitation Wind Pressure Humidity
    00:00 +11°C° 0 mm 1 mps 754 mmHg 87%
    01:00 +10°C° 0 mm 1 mps 754 mmHg 86%
    02:00 +9°C° 0 mm 2 mps 754 mmHg 86%
    03:00 +9°C° 0 mm 2 mps 754 mmHg 85%
    04:00 +10°C° 0 mm 1 mps 754 mmHg 85%
    05:00 +10°C° 0 mm 1 mps 754 mmHg 84%
    06:00 +9°C° 0 mm 1 mps 754 mmHg 84%
    07:00 +11°C° 0 mm 1 mps 754 mmHg 79%
    08:00 +13°C° 0 mm 1 mps 755 mmHg 75%
    09:00 +14°C° 0 mm 1 mps 755 mmHg 70%
    10:00 +16°C° 0 mm 1 mps 755 mmHg 67%
    11:00 +17°C° 0 mm 2 mps 755 mmHg 64%
    12:00 +18°C° 0 mm 2 mps 755 mmHg 60%
    13:00 +18°C° 0 mm 2 mps 755 mmHg 60%
    14:00 +19°C° 0 mm 2 mps 754 mmHg 61%
    15:00 +19°C° 0 mm 2 mps 754 mmHg 61%
    16:00 +18°C° 0 mm 2 mps 754 mmHg 67%
    17:00 +16°C° 0 mm 2 mps 753 mmHg 73%
    18:00 +15°C° 0 mm 1 mps 753 mmHg 79%
    19:00 +14°C° 0 mm 2 mps 753 mmHg 81%
    20:00 +14°C° 0 mm 2 mps 753 mmHg 83%
    21:00 +13°C° 0 mm 2 mps 753 mmHg 85%
    22:00 +12°C° 0 mm 2 mps 753 mmHg 86%
    23:00 +12°C° 0 mm 2 mps 753 mmHg 87%

    Day after tomorrow, 20 September, Friday

    Time Temperature Precipitation Wind Pressure Humidity
    00:00 +10°C° 0 mm 2 mps 753 mmHg 88%
    01:00 +10°C° 0 mm 2 mps 752 mmHg 89%
    02:00 +9°C° 0 mm 2 mps 752 mmHg 90%
    03:00 +9°C° 0 mm 2 mps 752 mmHg 90%
    04:00 +9°C° 0 mm 2 mps 751 mmHg 91%
    05:00 +8°C° 0 mm 3 mps 751 mmHg 92%
    06:00 +8°C° 0 mm 3 mps 750 mmHg 93%
    07:00 +10°C° 0 mm 4 mps 750 mmHg 87%
    08:00 +11°C° 0 mm 4 mps 750 mmHg 82%
    09:00 +13°C° 0 mm 5 mps 750 mmHg 77%
    10:00 +14°C° 0 mm 6 mps 750 mmHg 71%
    11:00 +15°C° 0 mm 6 mps 749 mmHg 65%
    12:00 +16°C° 0 mm 6 mps 748 mmHg 58%
    13:00 +17°C° 0 mm 6 mps 748 mmHg 57%
    14:00 +17°C° 0 mm 7 mps 747 mmHg 56%
    15:00 +17°C° 0 mm 7 mps 746 mmHg 55%
    16:00 +16°C° 0 mm 6 mps 746 mmHg 58%
    17:00 +15°C° 0 mm 6 mps 745 mmHg 60%
    18:00 +14°C° 0 mm 5 mps 744 mmHg 63%
    19:00 +13°C° 0 mm 5 mps 744 mmHg 63%
    20:00 +11°C° 0 mm 6 mps 744 mmHg 62%
    21:00 +10°C° 0 mm 6 mps 744 mmHg 62%
    22:00 +10°C° 0 mm 5 mps 743 mmHg 65%
    23:00 +9°C° 0 mm 5 mps 742 mmHg 67%

    21 September, Saturday

    Time Temperature Precipitation Wind Pressure Humidity
    00:00 +9°C° 0 mm 5 mps 742 mmHg 70%
    01:00 +10°C° 0 mm 4 mps 741 mmHg 72%
    02:00 +10°C° 0 mm 4 mps 741 mmHg 74%
    03:00 +8°C° 0 mm 4 mps 740 mmHg 76%
    04:00 +8°C° 0 mm 4 mps 740 mmHg 77%
    05:00 +8°C° 0 mm 4 mps 739 mmHg 79%
    06:00 +8°C° 0 mm 4 mps 739 mmHg 80%
    07:00 +10°C° 0 mm 4 mps 738 mmHg 78%
    08:00 +12°C° 0 mm 4 mps 738 mmHg 75%
    09:00 +14°C° 0 mm 5 mps 738 mmHg 72%
    10:00 +15°C° 0 mm 5 mps 738 mmHg 71%
    11:00 +17°C° 0 mm 5 mps 738 mmHg 70%
    12:00 +20°C° 0 mm 5 mps 737 mmHg 69%
    13:00 +20°C° 0 mm 6 mps 737 mmHg 69%
    14:00 +21°C° 0 mm 6 mps 736 mmHg 70%
    15:00 +22°C° 0 mm 7 mps 736 mmHg 71%
    16:00 +20°C° 0.2 mm 6 mps 735 mmHg 76%
    17:00 +19°C° 0.2 mm 5 mps 735 mmHg 81%
    18:00 +17°C° 0.2 mm 5 mps 735 mmHg 87%
    19:00 +18°C° 0.2 mm 4 mps 734 mmHg 88%
    20:00 +17°C° 0.2 mm 4 mps 734 mmHg 89%
    21:00 +15°C° 0.2 mm 4 mps 734 mmHg 90%
    22:00 +15°C° 0.5 mm 4 mps 734 mmHg 91%
    23:00 +15°C° 0.5 mm 4 mps 733 mmHg 92%

    22 September, Sunday

    Time Temperature Precipitation Wind Pressure Humidity
    00:00 +16°C° 0.5 mm 3 mps 733 mmHg 94%
    01:00 +15°C° 0.2 mm 4 mps 733 mmHg 94%
    02:00 +15°C° 0.2 mm 4 mps 734 mmHg 94%
    03:00 +15°C° 0.2 mm 4 mps 734 mmHg 94%
    04:00 +14°C° 0 mm 4 mps 734 mmHg 94%
    05:00 +13°C° 0 mm 3 mps 734 mmHg 94%
    06:00 +12°C° 0 mm 3 mps 734 mmHg 94%
    07:00 +13°C° 0.1 mm 4 mps 734 mmHg 90%
    08:00 +14°C° 0.1 mm 5 mps 735 mmHg 87%
    09:00 +15°C° 0.1 mm 6 mps 735 mmHg 83%
    10:00 +15°C° 0 mm 6 mps 735 mmHg 78%
    11:00 +16°C° 0 mm 6 mps 735 mmHg 72%
    12:00 +17°C° 0 mm 6 mps 735 mmHg 66%
    13:00 +17°C° 0.2 mm 6 mps 735 mmHg 69%
    14:00 +16°C° 0.2 mm 6 mps 735 mmHg 71%
    15:00 +16°C° 0.2 mm 6 mps 735 mmHg 73%
    16:00 +15°C° 0.1 mm 6 mps 736 mmHg 76%
    17:00 +14°C° 0.1 mm 6 mps 736 mmHg 79%
    18:00 +11°C° 0.1 mm 6 mps 736 mmHg 82%
    19:00 +12°C° 0 mm 5 mps 737 mmHg 84%
    20:00 +10°C° 0 mm 5 mps 737 mmHg 86%
    21:00 +11°C° 0 mm 4 mps 738 mmHg 87%
    22:00 +10°C° 0 mm 4 mps 738 mmHg 89%
    23:00 +10°C° 0 mm 3 mps 738 mmHg 91%

    23 September, Monday

    Time Temperature Precipitation Wind Pressure Humidity
    00:00 +10°C° 0 mm 3 mps 738 mmHg 93%
    01:00 +10°C° 0 mm 3 mps 738 mmHg 93%
    02:00 +9°C° 0 mm 3 mps 738 mmHg 93%
    03:00 +9°C° 0 mm 3 mps 738 mmHg 93%
    04:00 +9°C° 0 mm 3 mps 738 mmHg 93%
    05:00 +10°C° 0 mm 3 mps 738 mmHg 93%
    06:00 +10°C° 0 mm 3 mps 738 mmHg 94%
    07:00 +11°C° 0 mm 3 mps 738 mmHg 92%
    08:00 +12°C° 0 mm 4 mps 737 mmHg 90%
    09:00 +14°C° 0 mm 5 mps 737 mmHg 88%
    10:00 +14°C° 0.3 mm 5 mps 737 mmHg 90%
    11:00 +14°C° 0.3 mm 5 mps 736 mmHg 92%
    12:00 +14°C° 0.3 mm 6 mps 736 mmHg 94%
    13:00 +14°C° 0.9 mm 5 mps 736 mmHg 95%
    14:00 +14°C° 0.9 mm 4 mps 736 mmHg 96%
    15:00 +15°C° 0.9 mm 4 mps 736 mmHg 97%
    16:00 +15°C° 0.3 mm 4 mps 736 mmHg 97%
    17:00 +16°C° 0.3 mm 5 mps 736 mmHg 96%
    18:00 +16°C° 0.3 mm 5 mps 736 mmHg 96%
    19:00 +15°C° 0.1 mm 5 mps 737 mmHg 96%
    20:00 +15°C° 0.1 mm 5 mps 737 mmHg 96%
    21:00 +15°C° 0.1 mm 4 mps 738 mmHg 96%
    22:00 +14°C° 0 mm 4 mps 738 mmHg 96%
    23:00 +14°C° 0 mm 4 mps 738 mmHg 96%
    Show more